FW9692 Weather Reports


time (UTC)temp
F
wind
direction
speed
knots
gust
knots
rain 1hr
in
rain 24hr
in
rain mn
in
humidity
%
barometer
mb
20260906031539 77 239 9.6 11.3 0.03 0.07 0.07 72 999.2
20260906030032 78 225 12.2 16.5 0.05 0.07 0.07 68 998.6
20260906024529 78 241 15.6 18.2 0.04 0.06 0.06 65 998.4
20260906023041 79 227 13.0 14.8 0.04 0.05 0.05 63 998.5
20260906021518 79 178 5.2 13.9 0.03 0.04 0.04 59 998.5
20260906020041 78 88 26.1 29.5 0.03 0.03 0.03 65 998.4
20260906014521 83 23 10.4 13.0 0.02 0.02 0.02 55 997.6
20260906013020 82 305 14.8 18.2 0.02 0.02 0.02 57 997.3
20260906011513 83 292 13.0 19.1 0.01 0.01 0.01 53 997.3
20260906010012 86 317 16.5 23.5 0.00 0.00 0.00 47 997.4
20260906004511 90 348 18.2 25.2 0.00 0.00 0.00 40 997.2
20260906003011 92 236 11.3 13.0 0.00 0.00 0.00 36 996.6
20260906001511 93 248 9.6 16.5 0.00 0.00 0.00 36 996.5
20260906000010 94 269 7.0 9.6 0.00 0.00 0.00 33 996.3
20260905234509 94 246 4.3 7.8 0.00 0.00 0.00 33 996.4
20260905233023 94 273 5.2 9.6 0.00 0.00 0.00 35 996.3
20260905231514 93 275 9.6 15.6 0.00 0.00 0.00 34 996.3
20260905230013 93 279 16.5 21.7 0.00 0.00 0.00 34 996.1
20260905224511 94 269 12.2 13.9 0.00 0.00 0.00 34 996.1
20260905223007 96 133 4.3 12.2 0.00 0.00 0.00 29 996.1
20260905221508 97 98 3.5 8.7 0.00 0.00 0.00 29 996.1
20260905220006 95 123 4.3 10.4 0.00 0.00 0.00 30 996.1
20260905214505 95 92 5.2 13.0 0.00 0.00 0.00 30 996.3
20260905213003 95 93 5.2 13.0 0.00 0.00 0.00 30 996.4
20260905211502 96 92 6.1 12.2 0.00 0.00 0.00 31 996.6
20260905210103 97 90 8.7 16.5 0.00 0.00 0.00 30 996.7
20260905204558 97 146 4.3 7.8 0.00 0.00 0.00 30 997.0
20260905203001 97 168 8.7 13.0 0.00 0.00 0.00 30 997.3
20260905201602 96 63 6.1 11.3 0.00 0.00 0.00 32 997.5
20260905200058 96 117 5.2 13.9 0.00 0.00 0.00 32 997.8
20260905194557 95 36 5.2 13.9 0.00 0.00 0.00 33 997.9
20260905193051 95 41 4.3 12.2 0.00 0.00 0.00 34 998.2
20260905191548 94 133 8.7 13.0 0.00 0.00 0.00 35 998.5
20260905190045 94 210 6.1 10.4 0.00 0.00 0.00 37 998.7
20260905184539 94 53 4.3 10.4 0.00 0.00 0.00 37 998.9
20260905183038 93 59 5.2 12.2 0.00 0.00 0.00 38 999.1
20260905181535 93 305 3.5 9.6 0.00 0.00 0.00 39 999.3
20260905180033 92 9 4.3 10.4 0.00 0.00 0.00 41 999.6
20260905174537 91 56 3.5 8.7 0.00 0.00 0.00 43 999.8
20260905173031 91 335 1.7 7.8 0.00 0.00 0.00 43 999.9
20260905171527 89 337 6.1 11.3 0.00 0.00 0.00 44 1000.0
20260905170030 89 11 5.2 12.2 0.00 0.00 0.00 45 1000.0
20260905164529 88 259 6.1 10.4 0.00 0.00 0.00 46 1000.1
20260905163027 88 328 7.0 11.3 0.00 0.00 0.00 46 1000.1
20260905161519 87 294 6.1 10.4 0.00 0.00 0.00 48 1000.1
20260905160044 86 286 6.1 10.4 0.00 0.00 0.00 49 1000.2
20260905154513 85 304 6.1 11.3 0.00 0.00 0.00 51 1000.2
20260905153018 84 279 8.7 10.4 0.00 0.00 0.00 52 1000.2
20260905151509 83 284 6.1 13.0 0.00 0.00 0.00 54 1000.3
20260905150016 82 266 10.4 12.2 0.00 0.00 0.00 54 1000.3
20260905144519 81 257 7.8 11.3 0.00 0.00 0.00 55 1000.5
20260905143003 81 244 8.7 12.2 0.00 0.00 0.00 56 1000.4
20260905141613 80 254 7.8 11.3 0.00 0.00 0.00 57 1000.4
20260905140104 79 262 8.7 11.3 0.00 0.00 0.00 59 1000.3
20260905134607 78 248 8.7 10.4 0.00 0.00 0.00 59 1000.3
20260905133100 77 257 6.1 7.8 0.00 0.00 0.00 60 1000.1
20260905131600 76 243 7.8 9.6 0.00 0.00 0.00 62 999.9
20260905130058 76 269 7.8 9.6 0.00 0.00 0.00 62 999.8
20260905124555 76 262 5.2 7.0 0.00 0.00 0.00 62 999.7
20260905123057 76 249 4.3 6.1 0.00 0.00 0.00 63 999.5
20260905121552 76 272 5.2 9.6 0.00 0.00 0.00 62 999.3
20260905120057 76 262 7.8 11.3 0.00 0.00 0.00 61 999.2
20260905114624 77 269 10.4 13.0 0.00 0.00 0.00 60 999.1
20260905113056 77 281 9.6 11.3 0.00 0.00 0.00 62 999.1
20260905111553 78 294 8.7 9.6 0.00 0.00 0.00 60 999.0
20260905110050 79 288 7.0 8.7 0.00 0.00 0.00 57 999.0
20260905104551 79 319 3.5 5.2 0.00 0.00 0.00 57 998.9
20260905103046 80 302 7.0 7.8 0.00 0.00 0.00 55 998.8
20260905101550 80 18 2.6 4.3 0.00 0.00 0.00 55 998.9
20260905100106 78 300 3.5 4.3 0.00 0.00 0.00 59 998.6
20260905094603 77 50 2.6 7.0 0.00 0.00 0.00 62 998.9
20260905093037 78 269 7.8 9.6 0.00 0.00 0.00 60 998.4
20260905091544 79 281 7.8 8.7 0.00 0.00 0.00 57 998.4
20260905090033 78 303 7.8 9.6 0.00 0.00 0.00 58 998.6
20260905084530 78 301 6.1 10.4 0.00 0.00 0.00 57 998.5
20260905083030 79 319 8.7 10.4 0.00 0.00 0.00 56 998.5
20260905081530 80 297 9.6 11.3 0.00 0.00 0.00 54 998.5
20260905080038 80 312 7.8 9.6 0.00 0.00 0.00 54 998.4
20260905074542 80 277 2.6 7.8 0.00 0.00 0.00 55 998.6
20260905073042 79 105 2.6 9.6 0.00 0.00 0.00 59 998.8
20260905071531 80 257 6.1 7.8 0.00 0.00 0.00 56 998.6
20260905070031 82 239 7.0 9.6 0.00 0.00 0.00 51 998.6
20260905064529 82 221 7.0 9.6 0.00 0.00 0.00 51 998.5
20260905063030 82 217 9.6 13.9 0.00 0.00 0.00 51 998.5
20260905061532 82 201 8.7 9.6 0.00 0.00 0.00 53 998.5
20260905060128 82 185 7.8 11.3 0.00 0.00 0.00 54 998.6
20260905054526 83 175 12.2 15.6 0.00 0.00 0.00 50 998.5
20260905053034 84 149 11.3 16.5 0.00 0.00 0.00 48 998.7
20260905051529 84 164 13.9 18.2 0.00 0.00 0.00 47 998.6
20260905050033 85 153 7.8 12.2 0.00 0.00 0.00 47 998.6
20260905044527 87 140 8.7 12.2 0.00 0.00 0.00 42 998.9
20260905043033 87 92 4.3 12.2 0.00 0.00 0.00 40 998.9
20260905041534 87 298 5.2 19.1 0.00 0.00 0.00 41 998.9
20260905040031 87 237 16.5 23.5 0.00 0.00 0.00 43 998.1
20260905034540 86 262 11.3 13.9 0.00 0.00 0.00 45 998.2
20260905033044 87 299 12.2 18.2 0.00 0.00 0.00 41 998.0